Meteo Giornale » Osservazioni meteo Russia » Chelyabinsk-Balandino
ore: 10:30 - Osservazioni Meteo Chelyabinsk-Balandino
Lat. 55° 10' N Lon. 61° 24' E Alt. metri s.l.m.
11 °C
Nuvoloso
Temp. 24 Ore
4 °C
13 °C
Nord/NOvest
21.6 Km/h
Dew point 4 °C
Umidità 61 %
Visibilità 10 Km
Il sole sorge alle ore 06:00
Il sole tramonta alle ore 19:48
| Data e Ora | Cielo e Fenomeni | T °C | DP °C | Um. % | Pres. hPa | Vis. km | Vento km/h | |
|---|---|---|---|---|---|---|---|---|
| Oggi h: 10:30 | Nuvoloso | 11 | 4 | 61 | 1020 | 10 | N/NO 21.6 | |
| Oggi h: 10:00 | Nuvoloso | 10 | 4 | 66 | 1019 | 10 | N/NO 21.6 | |
| Oggi h: 09:30 | Nuvoloso | 10 | 3 | 61 | 1019 | 10 | N 21.6 | |
| Oggi h: 09:00 | Sereno | 10 | 4 | 66 | 1019 | 10 | N/NO 18 | |
| Oggi h: 08:30 | Sereno | 9 | 4 | 70 | 1018 | 10 | N/NO 18 | |
| Oggi h: 08:00 | Sereno | 9 | 4 | 70 | 1018 | 10 | NO 14.4 | |
| Oggi h: 07:30 | Sereno | 8 | 4 | 75 | 1018 | 10 | NO 14.4 | |
| Oggi h: 07:00 | Sereno | 7 | 4 | 81 | 1018 | 10 | O/NO 10.8 | |
| Oggi h: 06:30 | Sereno | 5 | 3 | 86 | 1018 | 10 | O/NO 10.8 | |
| Oggi h: 06:00 | Sereno | 4 | 3 | 93 | 1018 | 10 | O/NO 14.4 | |
| Oggi h: 05:30 | Sereno | 5 | 3 | 86 | 1017 | 10 | O 14.4 | |
| Oggi h: 05:00 | Sereno | 5 | 3 | 86 | 1017 | 10 | O 14.4 | |
| Oggi h: 04:30 | Sereno | 6 | 2 | 75 | 1017 | 10 | O 14.4 | |
| Oggi h: 04:00 | Sereno | 7 | 2 | 70 | 1017 | 10 | O/NO 18 | |
| Oggi h: 03:30 | Sereno | 8 | 2 | 65 | 1017 | 10 | NO 14.4 | |
| Oggi h: 03:00 | Sereno | 7 | 3 | 75 | 1017 | 10 | O 14.4 | |
| Oggi h: 02:30 | Sereno | 7 | 3 | 75 | 1017 | 10 | O 14.4 | |
| Oggi h: 02:00 | Sereno | 8 | 2 | 65 | 1017 | 10 | O/NO 18 | |
| Oggi h: 01:30 | Sereno | 8 | 2 | 65 | 1017 | 10 | O/NO 14.4 | |
| Oggi h: 01:00 | Sereno | 8 | 2 | 65 | 1017 | 10 | O/NO 14.4 | |
| Oggi h: 00:30 | Sereno | 8 | 2 | 65 | 1017 | 10 | O/NO 14.4 | |
| Oggi h: 00:00 | Sereno | 9 | 1 | 57 | 1017 | 10 | NO 18 | |
| Ieri h: 23:30 | Sereno | 9 | 2 | 61 | 1017 | 10 | NO 18 | |
| Ieri h: 23:00 | Molto Nuvoloso | 9 | 4 | 70 | 1017 | 10 | O/NO 18 | |
| Ieri h: 22:30 | Sereno | 8 | 5 | 81 | 1017 | 10 | O 14.4 | |
| Ieri h: 22:00 | Sereno | 8 | 5 | 81 | 1017 | 10 | O 14.4 | |
| Ieri h: 21:30 | Molto Nuvoloso | 9 | 4 | 70 | 1017 | 10 | O 14.4 | |
| Ieri h: 21:00 | Sereno | 9 | 4 | 70 | 1017 | 10 | O/NO 14.4 | |
| Ieri h: 20:30 | Sereno | 8 | 4 | 75 | 1017 | 10 | O/NO 14.4 | |
| Ieri h: 20:00 | Sereno | 10 | 3 | 61 | 1016 | 10 | O/NO 18 | |
| Ieri h: 19:30 | Molto Nuvoloso | 10 | 4 | 66 | 1016 | 10 | O/NO 18 | |
| Ieri h: 19:00 | Nuvoloso | 10 | 4 | 66 | 1016 | 10 | O 21.6 | |
| Ieri h: 18:30 | Poco Nuvoloso | 11 | 4 | 61 | 1016 | 10 | O/NO 21.6 | |
| Ieri h: 18:00 | Nuvoloso | 11 | 5 | 66 | 1016 | 10 | O/NO 21.6 | |
| Ieri h: 17:30 | Nuvoloso | 12 | 4 | 57 | 1016 | 10 | O/NO 25.2 | |
| Ieri h: 17:07 | Pioggia | 11 | 4 | 61 | 1016 | 10 | O/NO 25.2 | |
| Ieri h: 17:00 | Nuvoloso | 12 | 5 | 62 | 1016 | 10 | O 28.8 | |
| Ieri h: 16:56 | Nuvoloso | 12 | 4 | 57 | 1016 | 10 | O 25.2 | |
| Ieri h: 16:30 | Nuvoloso | 11 | 4 | 61 | 1016 | 10 | O/NO 28.8 | |
| Ieri h: 16:00 | Nuvoloso | 12 | 7 | 71 | 1016 | 10 | O/NO 25.2 | |
| Ieri h: 15:30 | Nuvoloso | 12 | 5 | 62 | 1016 | 10 | O/NO 25.2 | |
| Ieri h: 15:12 | Nuvoloso | 13 | 5 | 58 | 1016 | 10 | O/NO 21.6 | |
| Ieri h: 15:00 | Nuvoloso | 13 | 6 | 62 | 1016 | 10 | O 28.8 | |
| Ieri h: 14:30 | Pioggia | 11 | 5 | 66 | 1016 | 10 | O/NO 18 | |
| Ieri h: 14:00 | Pioggia | 11 | 4 | 61 | 1016 | 10 | O/NO 28.8 | |
| Ieri h: 13:30 | Molto Nuvoloso | 11 | 4 | 61 | 1016 | 10 | O 28.8 | |
| Ieri h: 13:00 | Nuvoloso | 12 | 5 | 62 | 1016 | 10 | O 25.2 | |
| Ieri h: 12:30 | Nuvoloso | 12 | 6 | 66 | 1017 | 10 | O 25.2 | |
| Ieri h: 12:00 | Nuvoloso | 11 | 5 | 66 | 1017 | 10 | O/NO 25.2 | |



